This is the latest recevied weather packets stored in our database for station/object IZ5ILU-16. If no packets are shown the sender has not sent any weather packets the latest 10 day(s).
| Time | Temp. | Humidity | Pressure | Rain* | Wind** | Luminosity | Snow |
|---|---|---|---|---|---|---|---|
| 1788627100 | 30° C | 55% | 1017.9 hPa | 0 mm | - | - | - |
| 1788626500 | 30.56° C | 54% | 1018 hPa | 0 mm | - | - | - |
| 1788625900 | 31.11° C | 54% | 1017.8 hPa | 0 mm | - | - | - |
| 1788625300 | 31.11° C | 53% | 1017.8 hPa | 0 mm | - | - | - |
| 1788624700 | 31.67° C | 53% | 1017.9 hPa | 0 mm | - | - | - |
| 1788624100 | 31.67° C | 52% | 1017.8 hPa | 0 mm | - | - | - |
| 1788623500 | 31.67° C | 51% | 1017.8 hPa | 0 mm | - | - | - |
| 1788622900 | 31.67° C | 49% | 1017.7 hPa | 0 mm | - | - | - |
| 1788622300 | 31.67° C | 51% | 1017.6 hPa | 0 mm | - | - | - |
| 1788621700 | 31.67° C | 51% | 1017.6 hPa | 0 mm | - | - | - |
| 1788621100 | 32.22° C | 50% | 1017.6 hPa | 0 mm | - | - | - |
| 1788620500 | 31.67° C | 50% | 1017.6 hPa | 0 mm | - | - | - |
| 1788619900 | 31.67° C | 51% | 1017.7 hPa | 0 mm | - | - | - |
| 1788619300 | 31.67° C | 50% | 1017.8 hPa | 0 mm | - | - | - |
| 1788618700 | 31.67° C | 50% | 1017.8 hPa | 0 mm | - | - | - |
| 1788618100 | 31.67° C | 51% | 1017.9 hPa | 0 mm | - | - | - |
| 1788617500 | 31.11° C | 51% | 1017.9 hPa | 0 mm | - | - | - |
| 1788616900 | 31.11° C | 49% | 1018 hPa | 0 mm | - | - | - |
| 1788616300 | 31.11° C | 50% | 1018.1 hPa | 0 mm | - | - | - |
| 1788615701 | 31.11° C | 50% | 1018.3 hPa | 0 mm | - | - | - |
| 1788615100 | 30.56° C | 50% | 1018.3 hPa | 0 mm | - | - | - |
| 1788614501 | 30.56° C | 52% | 1018.4 hPa | 0 mm | - | - | - |
| 1788613900 | 30.56° C | 53% | 1018.5 hPa | 0 mm | - | - | - |
| 1788613300 | 30° C | 53% | 1018.6 hPa | 0 mm | - | - | - |
| 1788612700 | 30° C | 53% | 1018.8 hPa | 0 mm | - | - | - |
* Rain latest hour (hover to see other rain measurements)
** Current wind speed in m/s (hover to see current wind gust speed)